Weather History for Fort Polk, LA

Change the Weather History Date:

Thursday, April 18, 2013

  Actual Average (KPOE) Record (KPOE)
Temperature  
Mean Temperature 65 °F -  
Max Temperature 82 °F 75 °F 91 °F (2006)
Min Temperature 48 °F 55 °F 39 °F (2001)
Growing Degree Days 15 (Base 50)    
Moisture  
Dew Point 58 °F    
Average Humidity 84    
Maximum Humidity 100    
Minimum Humidity 65    
Precipitation  
Precipitation 0.49 in - - ()
Sea Level Pressure  
Sea Level Pressure 29.81 in    
Wind  
Wind Speed 8 mph (WSW)    
Max Wind Speed 14 mph    
Max Gust Speed 25 mph    
Visibility 9 miles    
Events Rain , Thunderstorm    
Averages and records for this station are not official NWS values.
T = Trace of Precipitation, MM = Missing Value Source: NWS Daily Summary

Daily Weather History Graph

Daily Weather History Graph

Search for Another Location

Airport:

Trip Planner

Search our weather history database for the weather conditions in past years. The results will help you decide how hot, cold, wet, or windy it might be!

Date:

Astronomy

Apr. 18, 2013 Rise Set
Actual Time 6:41 AM CDT 7:44 PM CDT
Civil Twilight 6:16 AM CDT 8:09 PM CDT
Nautical Twilight 5:46 AM CDT 8:38 PM CDT
Astronomical Twilight 5:15 AM CDT 9:09 PM CDT
Moon 12:57 PM CDT (4/18) 1:54 AM CDT (4/18)
Length of Visible Light 13h 52m
Length of Day
13h 02m
First Quarter, 52% of the Moon is Illuminated
Apr 18
First Quarter
Apr 25
Full
May 2
Last Quarter
May 9
New
May 17
First Quarter

Hourly Weather History & Observations

Time (CDT) Temp. Heat Index Dew Point Humidity Pressure Visibility Wind Dir Wind Speed Gust Speed Precip Events Conditions
12:56 AM 75.9 °F - 69.1 °F 79% 29.82 in 10.0 mi Variable 6.9 mph 16.1 mph N/A   Overcast
1:56 AM 75.9 °F - 69.1 °F 79% 29.81 in 10.0 mi South 10.4 mph 23.0 mph 0.00 in   Overcast
2:56 AM 75.0 °F - 69.1 °F 82% 29.78 in 10.0 mi SSE 9.2 mph - 0.00 in   Overcast
3:56 AM 73.9 °F - 66.9 °F 79% 29.75 in 10.0 mi SSE 9.2 mph 17.3 mph N/A   Overcast
4:07 AM 73.4 °F - 66.2 °F 78% 29.76 in 10.0 mi South 9.2 mph 24.2 mph N/A   Overcast
4:56 AM 73.9 °F - 66.9 °F 79% 29.74 in 10.0 mi South 9.2 mph 19.6 mph N/A   Overcast
5:56 AM 73.9 °F - 66.9 °F 79% 29.73 in 10.0 mi SSE 8.1 mph 18.4 mph N/A   Overcast
6:56 AM 73.9 °F - 66.9 °F 79% 29.74 in 10.0 mi South 6.9 mph 16.1 mph N/A   Overcast
7:56 AM 75.0 °F - 66.9 °F 76% 29.75 in 10.0 mi Variable 5.8 mph 17.3 mph N/A   Overcast
8:56 AM 75.9 °F - 66.9 °F 74% 29.75 in 10.0 mi South 10.4 mph 18.4 mph N/A   Overcast
9:56 AM 78.1 °F - 66.9 °F 68% 29.75 in 10.0 mi South 13.8 mph 21.9 mph N/A   Overcast
10:56 AM 79.0 °F - 66.9 °F 66% 29.76 in 9.0 mi Variable 6.9 mph 25.3 mph N/A   Overcast
11:48 AM 80.6 °F 83.2 °F 68.0 °F 65% 29.77 in 10.0 mi South 8.1 mph 16.1 mph N/A   Overcast
11:56 AM 80.1 °F 82.7 °F 68.0 °F 67% 29.75 in 10.0 mi Variable 4.6 mph 18.4 mph N/A   Overcast
12:56 PM 82.0 °F 85.5 °F 69.1 °F 65% 29.73 in 10.0 mi South 9.2 mph 20.7 mph N/A   Overcast
1:20 PM 80.6 °F 83.9 °F 69.8 °F 70% 29.72 in 10.0 mi SSE 8.1 mph 21.9 mph N/A   Overcast
1:56 PM 79.0 °F - 69.1 °F 72% 29.70 in 10.0 mi South 9.2 mph 24.2 mph N/A   Overcast
2:56 PM 79.0 °F - 70.0 °F 74% 29.71 in 10.0 mi Variable 6.9 mph 20.7 mph N/A   Overcast
3:29 PM 66.2 °F - 62.6 °F 88% 29.74 in 4.0 mi Variable 4.6 mph - 0.01 in Rain Light Rain
3:31 PM 66.2 °F - 62.6 °F 88% 29.74 in 2.5 mi NNW 8.1 mph - 0.03 in Rain Rain
3:33 PM 66.2 °F - 62.6 °F 88% 29.74 in 1.8 mi North 13.8 mph 21.9 mph 0.05 in Rain Heavy Rain
3:42 PM 64.4 °F - 60.8 °F 88% 29.75 in 1.0 mi NNW 8.1 mph 20.7 mph 0.15 in Rain Heavy Rain
3:56 PM 62.1 °F - 59.0 °F 90% 29.76 in 3.0 mi WNW 8.1 mph 17.3 mph 0.19 in Rain Light Rain
4:06 PM 60.8 °F - 57.2 °F 88% 29.76 in 2.0 mi Variable 5.8 mph - 0.05 in Rain Rain
4:16 PM 60.8 °F - 57.2 °F 88% 29.76 in 5.0 mi Variable 4.6 mph - 0.07 in Rain Light Rain
4:48 PM 59.0 °F - 55.4 °F 88% 29.77 in 10.0 mi NNW 8.1 mph 16.1 mph 0.07 in Rain Light Rain
4:56 PM 59.0 °F - 55.0 °F 87% 29.77 in 10.0 mi North 6.9 mph - 0.07 in Rain Light Rain
5:07 PM 57.2 °F - 55.4 °F 94% 29.78 in 10.0 mi Variable 4.6 mph - 0.01 in Rain Light Rain
5:25 PM 57.2 °F - 55.4 °F 94% 29.80 in 10.0 mi Variable 6.9 mph - 0.01 in Rain Light Rain
5:41 PM 55.4 °F - 53.6 °F 94% 29.80 in 10.0 mi NNW 8.1 mph 19.6 mph 0.01 in   Overcast
5:49 PM 55.4 °F - 53.6 °F 94% 29.81 in 10.0 mi NNW 8.1 mph - 0.01 in Rain Light Rain
5:56 PM 55.9 °F - 52.0 °F 87% 29.81 in 10.0 mi Variable 6.9 mph 17.3 mph 0.01 in Rain Light Rain
6:14 PM 55.4 °F - 51.8 °F 88% 29.83 in 2.5 mi Variable 6.9 mph - 0.07 in Rain , Thunderstorm Heavy Thunderstorms and Rain
6:30 PM 53.6 °F - 51.8 °F 94% 29.83 in 9.0 mi NW 9.2 mph - 0.09 in Rain , Thunderstorm Light Rain
6:38 PM 53.6 °F - 51.8 °F 94% 29.82 in 10.0 mi NNW 8.1 mph - 0.10 in Rain Light Rain
6:56 PM 52.0 °F - 50.0 °F 93% 29.85 in 7.0 mi Variable 6.9 mph - 0.11 in Rain Light Rain
7:03 PM 51.8 °F - 48.2 °F 88% 29.84 in 10.0 mi NNW 9.2 mph - 0.00 in Rain Light Rain
7:11 PM 51.8 °F - 48.2 °F 88% 29.84 in 8.0 mi NW 8.1 mph 16.1 mph 0.01 in Rain , Thunderstorm Thunderstorms and Rain
7:56 PM 51.1 °F - 48.9 °F 92% 29.89 in 8.0 mi Variable 5.8 mph - 0.09 in Rain , Thunderstorm Thunderstorms and Rain
8:08 PM 50.0 °F - 48.2 °F 94% 29.90 in 10.0 mi Variable 5.8 mph - 0.01 in Rain Light Rain
8:26 PM 48.2 °F - 48.2 °F 100% 29.91 in 10.0 mi NNW 8.1 mph - 0.01 in Rain Light Rain
8:37 PM 50.0 °F - 46.4 °F 87% 29.92 in 10.0 mi Variable 4.6 mph - 0.01 in Rain , Thunderstorm Light Thunderstorms and Rain
8:52 PM 50.0 °F - 46.9 °F 89% 29.92 in 10.0 mi Variable 5.8 mph - 0.02 in Rain Light Rain
8:57 PM 50.0 °F - 46.4 °F 87% 29.93 in 10.0 mi Variable 6.9 mph 17.3 mph 0.00 in Rain Light Rain
9:52 PM 50.0 °F - 46.4 °F 87% 29.97 in 10.0 mi Variable 5.8 mph - 0.00 in Thunderstorm Thunderstorm
9:56 PM 50.0 °F - 46.0 °F 86% 29.97 in 10.0 mi Variable 4.6 mph - 0.00 in Thunderstorm Thunderstorm
10:08 PM 50.0 °F - 46.4 °F 87% 29.98 in 10.0 mi Calm Calm - N/A   Overcast
10:56 PM 50.0 °F - 46.0 °F 86% 29.99 in 10.0 mi Variable 4.6 mph - N/A   Overcast
11:56 PM 48.9 °F - 45.0 °F 86% 30.01 in 10.0 mi Variable 3.5 mph - N/A   Overcast